Sterling, IL

8:37 AM CST on November 18, 2019 (GMT -0600)
Whiteside County-Bittorf

Weather History for KSQI - September, 2019

Change the Weather History Date:

Wednesday, September 11, 2019

  Actual Average Record
Temperature  
Mean Temperature 78 °F -  
Max Temperature 87 °F 75 °F 93 °F (2000)
Min Temperature 69 °F 51 °F 42 °F (1999)
Cooling Degree Days 13    
Growing Degree Days 28 (Base 50)    
Moisture  
Dew Point 73 °F    
Average Humidity 85    
Maximum Humidity 100    
Minimum Humidity 65    
Precipitation  
Precipitation 0.01 in - - ()
Sea Level Pressure  
Sea Level Pressure 29.71 in    
Wind  
Wind Speed 3 mph ()    
Max Wind Speed 14 mph    
Max Gust Speed 18 mph    
Visibility 9.0 miles    
Events Rain , Thunderstorm    
Averages and records for this station are not official NWS values.
T = Trace of Precipitation, MM = Missing Value Source: Averaged Metar Reports

Daily Weather History Graph

Daily Weather History Graph

Search for Another Location

Airport or City:

Astronomy

Sep. 11, 2019 Rise Set
Actual Time 6:34 AM CDT 7:15 PM CDT
Civil Twilight 6:06 AM CDT 7:43 PM CDT
Nautical Twilight 5:33 AM CDT 8:16 PM CDT
Astronomical Twilight 4:58 AM CDT 8:50 PM CDT
Moon 6:30 PM CDT (9/11) 3:54 AM CDT (9/11)
Length of Visible Light 13h 36m
Length of Day
12h 40m
Waxing Gibbous, 95% of the Moon is Illuminated
Sep 11
Waxing Gibbous
Sep 13
Full
Sep 21
Last Quarter
Sep 28
New
Oct 5
First Quarter

Hourly Weather History & Observations

Time (CDT) Temp. Heat Index Dew Point Humidity Pressure Visibility Wind Dir Wind Speed Gust Speed Precip Events Conditions
12:56 AM 75.0 °F - 73.0 °F 94% 29.70 in 10.0 mi Calm Calm - N/A   Partly Cloudy
1:56 AM 75.0 °F - 73.0 °F 94% 29.70 in 10.0 mi Calm Calm - N/A   Mostly Cloudy
2:56 AM 73.9 °F - 73.0 °F 97% 29.69 in 10.0 mi Calm Calm - N/A   Clear
3:56 AM 73.0 °F - 72.0 °F 96% 29.69 in 9.0 mi Calm Calm - N/A   Partly Cloudy
4:56 AM 73.0 °F - 71.1 °F 93% 29.69 in 9.0 mi Calm Calm - N/A   Partly Cloudy
5:56 AM 70.0 °F - 70.0 °F 100% 29.69 in 6.0 mi SE 3.5 mph - N/A   Clear
6:32 AM 69.8 °F - 69.8 °F 100% 30.09 in 2.5 mi Calm Calm - N/A   Clear
6:41 AM 69.8 °F - 69.8 °F 100% 30.09 in 4.0 mi SE 3.5 mph - N/A   Clear
6:56 AM 71.1 °F - 71.1 °F 100% 29.70 in 6.0 mi SE 4.6 mph - N/A   Clear
7:56 AM 73.9 °F - 72.0 °F 93% 29.71 in 10.0 mi Variable 3.5 mph - N/A   Clear
8:56 AM 77.0 °F - 73.0 °F 88% 29.71 in 10.0 mi Calm Calm - N/A   Clear
9:56 AM 79.0 °F - 73.0 °F 82% 29.70 in 10.0 mi Variable 5.8 mph - N/A   Clear
10:56 AM 82.0 °F 87.9 °F 73.9 °F 76% 29.70 in 10.0 mi WSW 6.9 mph - N/A   Clear
11:56 AM 84.0 °F 91.2 °F 73.9 °F 72% 29.68 in 10.0 mi Variable 6.9 mph - N/A   Clear
12:56 PM 84.9 °F 91.4 °F 73.0 °F 67% 29.68 in 10.0 mi WSW 13.8 mph 18.4 mph N/A   Partly Cloudy
1:56 PM 84.9 °F 91.4 °F 73.0 °F 67% 29.67 in 10.0 mi WSW 13.8 mph - N/A   Clear
2:56 PM 87.1 °F 95.4 °F 73.9 °F 65% 29.63 in 10.0 mi WSW 9.2 mph - N/A   Clear
3:10 PM 84.2 °F 90.9 °F 73.4 °F 70% - 10.0 mi North - - 0.00 in Rain , Thunderstorm Light Thunderstorms and Rain
3:32 PM 80.6 °F 86.2 °F 75.2 °F 84% 30.00 in 10.0 mi Variable 3.5 mph - 0.01 in   Unknown
3:56 PM 82.9 °F 90.2 °F 75.0 °F 77% 29.60 in 10.0 mi Variable 5.8 mph - 0.01 in   Clear
4:56 PM 87.1 °F 97.3 °F 75.9 °F 69% 29.61 in 10.0 mi West 8.1 mph - N/A   Partly Cloudy
5:56 PM 84.0 °F 93.7 °F 77.0 °F 79% 29.62 in 10.0 mi West 4.6 mph - N/A   Scattered Clouds
6:56 PM 82.9 °F 89.4 °F 73.9 °F 74% 29.62 in 10.0 mi Calm Calm - N/A   Partly Cloudy
7:56 PM 79.0 °F - 73.0 °F 82% 29.61 in 10.0 mi Calm Calm - N/A   Clear
8:56 PM 78.1 °F - 73.0 °F 84% 29.62 in 10.0 mi Calm Calm - N/A   Clear
9:56 PM 77.0 °F - 73.0 °F 88% 29.61 in 10.0 mi Calm Calm - N/A   Clear
10:56 PM 73.9 °F - 72.0 °F 93% 29.63 in 10.0 mi NNE 4.6 mph - N/A   Clear
11:56 PM 72.0 °F - 71.1 °F 97% 29.63 in 6.0 mi East 3.5 mph - N/A   Clear